Location: Oshawa
(43.9000°N, 78.8670°W)
Time: 17:14:44
(UTC-05:00)

Explorer 11/Cluster Stage 4 - Visible Passes

Search period start: 21 December 2014 00:00
Search period end: 31 December 2014 00:00
Orbit: 468 x 1278 km, 28.8° (Epoch: 20 December)

Date Brightness Start Highest point End Pass type
(mag) Time Alt. Az. Time Alt. Az. Time Alt. Az.
23 Dec 9.0 18:34:54 10° S 18:37:20 12° SSE 18:39:38 10° SE visible
23 Dec 9.3 20:21:46 10° SW 20:22:31 12° SSW 20:22:31 12° SSW visible
24 Dec 9.0 18:26:01 10° SSW 18:29:35 15° SSE 18:32:50 10° SE visible
24 Dec 9.1 20:13:37 10° SW 20:15:31 15° SSW 20:15:31 15° SSW visible
25 Dec 9.0 18:17:27 10° SSW 18:21:48 17° S 18:25:43 10° SE visible
25 Dec 8.9 20:05:30 10° SW 20:08:30 18° SSW 20:08:30 18° SSW visible
26 Dec 9.0 18:09:01 10° SSW 18:13:59 19° S 18:18:26 10° SE visible
26 Dec 8.8 19:57:26 10° SW 20:01:29 19° SSW 20:01:29 19° SSW visible
27 Dec 9.0 18:00:42 10° SW 18:06:09 21° S 18:11:01 10° SE visible
27 Dec 8.7 19:49:24 10° SW 19:54:22 20° S 19:54:29 20° S visible
28 Dec 9.0 17:52:28 10° SW 17:58:17 23° S 18:03:31 10° SE visible
28 Dec 8.7 19:41:23 10° SW 19:46:32 21° S 19:47:29 20° S visible
29 Dec 9.1 17:44:17 10° SW 17:50:24 24° S 17:55:55 10° SE visible
29 Dec 8.8 19:33:25 10° WSW 19:38:40 21° SSW 19:40:31 19° S visible
30 Dec 9.1 17:36:09 10° SW 17:42:29 25° S 17:48:16 10° SE visible
30 Dec 8.9 19:25:29 10° WSW 19:30:46 20° SSW 19:33:36 16° SSE visible
